GFSNIL_con_mucape_000.txt.gz
CAPE
0 0 0 0 0 0 0 0 0 0 2 10 20 45 53 20 0 5 3 0 0 0
0 0 0 0 0 0 0 0 0 10 9 0 4 0 0 0 0 1 0 0 0 0
0 0 0 0 0 0 3 25 12 3 0 0 0 0 0 0 0 0 0 0 0 0
0 0 0 0 0 9 22 14 14 11 4 0 0 0 0 0 0 0 0 0 0 0
0 0 0 18 19 22 36 39 34 0 0 0 0 0 0 0 0 0 0 0 0 0
4 14 18 23 27 42 34 30 26 0 0 0 0 0 0 0 0 0 0 0 0 0
12 30 25 21 22 22 19 0 0 0 0 0 0 0 0 0 0 0 0 0 0 0
1 3 3 0 0 0 4 0 0 0 1 0 0 1 0 0 11 25 25 19 13 10
0 0 0 0 0 0 0 0 0 0 0 1 1 0 0 0 6 11 16 20 15 0
0 0 0 0 0 0 0 0 0 2 5 9 11 0 0 0 0 0 0 0 0 0
0 0 0 0 1 2 1 2 4 13 7 0 0 0 0 0 0 0 0 0 0 0
1 0 0 2 6 9 5 10 16 0 0 0 0 0 0 0 0 0 0 0 0 0
0 0 0 2 8 12 16 4 0 0 0 0 0 0 0 0 0 0 0 0 0 0
7 0 0 4 13 27 23 0 0 0 0 0 0 0 0 0 0 0 0 0 0 0

GFSNIL_con_mucape_006.txt.gz
CAPE
0 0 0 0 0 0 0 0 0 2 1 2 0 0 0 3 24 19 17 12 7 2
0 1 12 1 0 0 0 0 0 0 0 0 0 2 3 14 23 15 12 7 30 13
11 12 0 0 2 0 0 0 0 1 0 6 4 14 10 1 8 12 14 19 21 7
0 0 1 1 0 0 0 0 0 0 2 10 20 23 20 0 11 0 0 12 23 16
6 0 0 0 0 0 0 10 17 37 31 42 42 47 31 42 54 42 30 19 18 30
5 0 0 0 12 9 6 22 12 0 2 1 2 7 12 16 19 1 0 5 1 1
6 0 0 2 0 0 1 0 0 3 12 19 17 14 6 0 0 0 0 0 0 0
1 0 0 0 0 0 0 2 2 2 10 17 20 6 1 0 0 0 0 0 0 0
19 9 1 0 0 0 3 0 2 12 14 14 12 5 0 0 0 0 0 0 0 0
24 14 11 2 0 0 0 0 11 21 21 1 0 0 0 0 0 0 0 0 0 0
22 2 17 0 0 0 0 2 15 22 1 0 0 0 0 0 0 0 0 0 0 0
15 16 35 0 3 0 0 5 8 1 2 0 0 0 0 0 0 0 0 0 0 0
3 11 8 0 2 1 9 4 1 0 0 0 0 0 0 0 0 0 0 0 0 0
13 0 0 5 0 0 0 2 0 0 0 0 0 0 0 0 0 0 0 0 0 0

GFSNIL_con_mucape_009.txt.gz
CAPE
0 3 14 5 3 1 0 0 0 0 0 0 0 0 0 3 4 21 14 7 4 0
39 34 21 23 15 1 0 0 0 0 0 0 0 3 11 9 4 1 0 0 18 32
57 44 28 16 0 0 0 0 0 0 0 0 1 7 21 7 0 1 2 0 0 0
2 0 0 0 0 0 0 0 0 0 1 11 25 34 43 45 33 38 27 11 3 0
0 0 0 0 0 0 0 0 0 0 0 0 0 0 0 4 4 3 5 6 4 4
43 20 5 13 3 0 0 0 0 0 0 0 0 0 1 1 0 0 0 0 0 0
34 31 20 0 6 1 0 0 0 0 0 0 0 0 0 0 0 4 3 0 0 0
38 20 9 27 28 0 0 0 0 0 0 0 0 0 0 0 2 2 0 0 0 0
42 26 23 24 0 0 0 0 4 0 0 0 0 0 0 0 0 0 0 0 0 0
18 5 4 1 9 25 4 0 0 0 0 0 1 1 1 0 0 0 0 0 0 0
13 9 12 14 10 16 0 0 0 0 0 0 0 0 0 0 0 0 0 0 0 0
0 1 1 7 0 2 0 0 0 0 0 0 0 0 0 0 0 0 0 0 0 0
0 0 1 0 2 0 0 0 0 0 0 0 0 0 0 0 0 0 0 0 0 0
0 1 7 2 0 0 0 0 0 0 0 0 0 0 0 0 0 0 0 0 0 0

GFSNIL_con_mucape_012.txt.gz
CAPE
7 17 31 14 15 7 1 0 0 0 0 0 0 0 0 0 0 1 0 0 0 1
11 3 10 0 0 0 0 0 0 0 0 0 0 0 4 6 0 0 0 4 16 16
0 0 0 0 0 4 0 0 3 0 0 0 0 0 2 4 0 6 10 22 4 9
0 3 9 11 18 9 0 3 0 0 0 0 0 0 0 0 0 0 0 0 1 4
32 51 39 43 12 2 17 2 0 2 0 0 0 0 0 0 0 0 0 0 0 0
7 16 47 63 32 18 8 8 0 0 0 0 0 0 0 0 0 0 0 0 0 0
0 4 21 27 10 12 25 0 4 0 0 0 0 0 0 0 0 0 0 0 0 0
0 4 27 46 38 24 0 0 0 1 5 2 0 0 1 0 0 0 0 0 0 0
0 8 7 0 17 19 20 1 4 4 0 0 0 1 0 0 0 0 0 0 0 0
2 0 0 0 0 24 14 11 7 0 0 0 0 0 0 0 0 0 0 0 0 0
0 0 0 0 4 5 0 0 0 0 0 0 0 0 0 0 0 0 0 0 0 0
0 0 0 0 0 2 0 0 0 0 0 0 0 0 0 0 0 0 0 0 0 0
0 0 0 0 0 0 0 1 0 0 0 0 0 0 0 0 0 0 0 0 0 0
0 0 0 0 0 0 0 0 0 0 0 0 0 0 0 0 0 0 0 0 0 0

GFSNIL_con_mucape_015.txt.gz
CAPE
0 0 0 0 0 0 0 0 0 0 0 1 1 0 0 0 0 0 0 0 1 4
0 0 0 0 0 0 0 5 5 6 5 1 0 0 0 0 0 0 1 11 18 9
0 0 0 0 0 7 16 28 6 11 5 3 1 0 0 0 0 0 0 0 0 0
0 0 0 0 0 15 32 38 11 14 0 0 1 0 0 0 0 0 0 0 0 0
0 0 0 0 0 10 10 2 17 6 9 0 0 0 0 0 0 0 0 0 1 2
0 0 0 0 0 0 0 0 12 2 0 0 0 2 0 0 0 2 0 2 1 0
0 0 0 0 0 0 0 14 1 2 1 1 3 1 0 0 3 0 0 0 0 0
0 0 0 0 0 0 8 11 8 0 0 1 0 0 0 3 0 0 0 0 0 0
0 0 0 0 0 0 8 13 4 3 3 0 0 0 0 0 0 0 0 0 0 0
0 0 0 0 0 0 0 0 0 0 0 0 0 0 0 0 0 0 0 0 0 0
0 0 0 0 0 0 0 0 0 0 0 0 0 0 0 0 0 0 0 0 0 0
0 0 0 0 0 0 0 0 0 0 0 0 0 0 0 0 0 0 0 0 0 0
0 0 0 0 0 0 0 0 0 0 0 0 0 0 0 0 0 0 0 0 0 0
0 0 0 0 0 0 0 0 0 0 0 0 0 0 0 0 0 0 0 0 0 0

GFSNIL_con_mucape_018.txt.gz
CAPE
0 0 0 0 0 0 0 0 0 0 1 6 0 3 0 0 0 0 0 0 0 0
0 0 0 0 0 0 0 0 0 5 9 2 0 0 0 0 0 0 0 0 0 0
0 0 0 0 0 0 0 0 6 10 0 13 15 0 0 0 0 0 0 0 0 0
0 0 0 0 0 0 0 0 8 15 18 20 11 5 0 0 0 0 0 0 0 0
0 0 0 0 0 0 0 0 0 4 8 8 2 0 0 0 0 0 0 0 0 0
0 0 0 0 0 0 0 0 0 3 3 0 0 0 2 0 0 0 0 0 0 0
0 0 0 0 0 0 0 0 3 7 10 2 2 0 0 0 0 0 0 0 0 0
0 0 0 0 0 0 0 0 8 15 2 3 2 1 0 0 0 0 0 0 0 0
0 0 0 0 0 0 0 0 0 1 4 6 0 0 0 0 0 0 0 0 0 0
0 0 0 0 0 0 0 0 0 0 0 0 0 0 0 0 0 0 0 0 0 0
0 0 0 0 0 0 0 7 0 0 0 0 0 0 0 0 0 0 0 0 0 0
0 0 0 0 0 0 0 0 0 0 0 0 0 0 0 0 0 0 0 0 0 0
0 0 0 0 0 0 0 0 0 0 0 0 0 0 0 0 0 0 0 0 0 0
0 0 0 0 0 0 0 0 0 0 0 0 0 0 0 0 0 0 0 0 0 0

GFSNIL_con_mucape_021.txt.gz
CAPE
0 0 0 0 0 0 0 0 0 0 0 11 4 2 0 0 8 17 28 20 0 0
0 0 0 0 0 0 0 0 0 0 0 8 0 0 1 3 41 42 30 17 20 23
0 0 0 0 0 0 0 0 0 0 3 9 3 6 5 7 20 12 13 6 16 3
0 0 0 0 0 0 0 0 0 0 0 2 8 4 17 0 0 0 0 0 0 0
0 0 0 0 0 0 0 0 0 0 0 5 1 36 0 0 0 0 0 0 0 0
0 0 0 0 0 0 0 0 0 0 2 16 27 5 4 0 0 0 0 0 0 0
0 0 0 0 0 0 0 0 0 18 28 2 0 3 0 0 0 0 0 0 0 0
0 0 0 0 0 0 0 2 2 0 0 0 4 1 1 0 0 0 0 0 0 0
0 0 0 0 0 0 0 0 4 0 0 0 0 0 0 0 0 0 0 0 0 0
0 0 0 0 0 0 0 0 0 5 0 0 0 0 0 0 0 0 0 0 0 0
0 0 0 0 0 0 0 0 0 0 0 0 0 0 0 0 0 0 0 0 0 0
0 0 0 0 0 0 0 0 0 0 0 0 0 0 0 0 0 0 0 0 0 0
0 0 0 0 0 0 0 0 0 0 0 0 0 0 0 0 0 0 0 0 0 0
0 0 0 0 0 0 0 0 0 0 0 0 0 0 0 0 0 0 0 0 0 0

GFSNIL_con_mucape_024.txt.gz
CAPE
0 0 0 0 0 0 0 0 0 0 1 25 47 50 67 83 63 61 45 41 48 48
16 0 0 0 0 0 0 0 0 0 5 29 60 81 86 90 72 76 57 60 38 30
3 0 0 0 0 0 0 0 0 0 0 13 47 79 81 69 70 57 63 27 18 36
0 0 0 0 0 0 0 0 0 2 4 16 43 49 67 72 86 53 32 22 43 45
0 0 0 0 0 0 1 2 3 9 15 26 38 61 63 63 6 15 32 34 34 47
0 0 0 0 0 2 6 3 5 14 32 29 43 25 0 1 3 0 8 24 32 20
0 0 0 0 0 5 5 3 8 30 24 23 25 26 9 0 7 22 10 3 4 1
0 0 0 0 2 4 2 5 20 28 36 35 25 1 0 0 0 0 0 0 0 0
0 0 0 0 0 0 4 12 14 22 35 27 0 0 0 0 0 2 0 0 0 0
0 0 0 0 0 1 5 13 12 35 31 23 0 0 0 0 0 0 0 0 0 0
0 0 0 0 0 4 11 11 24 39 20 1 0 0 0 0 0 0 0 0 0 0
0 0 0 0 0 7 11 13 26 27 23 0 0 0 0 0 0 0 0 0 0 0
0 0 0 0 1 5 13 8 9 10 0 0 0 0 0 0 0 0 0 0 0 0
0 0 0 0 3 11 15 14 0 0 0 0 0 0 0 0 0 0 0 0 0 0

GFSNIL_con_mucape_027.txt.gz
CAPE
2 8 1 0 0 0 0 0 0 0 0 0 2 15 46 64 46 78 100 72 68 62
15 18 10 0 0 0 0 0 0 0 0 0 0 20 68 74 57 82 97 99 106 63
12 0 0 0 0 0 0 0 0 0 0 1 7 19 49 55 75 82 102 101 51 43
0 0 0 0 0 0 0 0 1 0 1 9 16 23 43 55 56 83 90 57 35 58
0 0 0 0 0 0 0 2 2 0 5 12 19 17 37 38 29 2 19 28 27 40
0 0 0 0 0 0 0 3 2 2 11 17 25 30 14 25 24 21 27 26 29 23
0 0 0 0 0 0 1 4 3 8 17 25 28 21 22 18 25 25 23 29 18 5
0 0 0 0 0 0 5 1 7 12 19 21 21 8 3 11 4 10 22 22 4 1
0 0 0 0 0 1 0 2 10 16 28 16 13 0 0 0 0 0 6 4 0 0
0 0 0 0 0 0 1 9 20 25 27 29 18 0 0 0 0 0 0 0 0 0
0 0 0 0 0 0 6 19 19 29 28 25 8 0 0 0 0 0 0 0 0 0
0 0 0 0 0 0 5 13 16 17 17 17 3 0 0 0 0 0 0 0 0 0
0 0 0 0 0 0 6 12 15 8 19 11 0 0 0 0 0 0 0 0 0 0
0 0 0 0 0 3 10 14 16 7 8 2 0 0 0 0 0 0 0 0 0 0

GFSNIL_con_mucape_030.txt.gz
CAPE
0 0 0 1 15 0 0 0 0 0 0 0 0 0 0 21 30 20 9 13 17 20
0 0 11 13 7 0 0 0 0 0 0 0 0 0 0 0 31 34 25 23 7 21
0 0 6 13 0 0 0 0 0 0 0 0 0 1 9 10 1 6 7 8 13 11
6 2 9 6 0 0 0 0 0 0 0 0 0 4 3 0 0 1 0 0 11 7
13 13 12 9 0 0 0 0 0 0 0 0 1 4 1 2 0 14 15 6 5 2
23 15 2 12 0 0 0 0 0 0 0 0 6 2 0 1 0 8 6 2 0 0
17 0 4 0 0 0 0 0 0 0 0 9 13 4 0 0 1 1 0 0 0 0
23 7 0 0 0 0 0 0 0 0 7 9 10 2 0 0 0 0 0 0 0 0
1 0 1 0 0 0 0 0 0 5 6 10 6 0 0 0 0 0 0 0 0 0
12 0 0 0 0 0 0 0 0 4 4 9 4 0 0 0 0 0 0 0 0 0
0 1 0 0 0 0 0 0 7 6 3 5 2 0 0 0 0 0 0 0 0 0
0 0 0 2 0 0 0 0 1 2 1 0 2 0 0 0 0 0 0 0 0 0
0 2 3 0 0 0 0 1 5 1 2 3 1 1 0 0 0 0 0 0 0 0
0 0 0 0 0 0 0 1 0 0 0 0 1 0 0 0 0 0 0 0 0 0

GFSNIL_con_mucape_033.txt.gz
CAPE
0 0 0 0 0 4 17 26 10 0 0 0 0 0 0 0 0 1 7 4 4 4
2 0 0 2 13 8 23 22 4 0 0 0 0 0 0 0 0 0 0 1 6 3
0 2 6 13 10 31 10 5 0 0 0 0 0 0 0 0 0 0 0 0 0 0
8 8 11 11 12 19 12 0 0 0 0 0 0 0 0 0 0 0 0 0 0 0
33 16 14 7 28 1 2 0 0 0 0 0 0 0 0 0 0 0 0 0 0 3
50 13 19 16 1 0 3 0 0 0 0 0 0 0 0 0 0 0 0 0 0 0
36 42 11 3 0 12 0 7 0 0 0 0 0 0 0 0 3 0 0 0 0 0
38 29 11 0 0 0 0 0 0 0 0 0 0 0 0 2 8 0 0 0 0 0
36 37 5 0 0 0 0 0 0 0 0 0 0 0 0 2 3 1 0 0 0 0
50 46 24 2 0 0 0 0 0 0 1 0 0 3 2 5 1 0 0 0 0 0
57 27 9 2 0 0 0 0 0 0 0 0 1 3 0 0 0 0 0 0 0 0
15 5 2 0 0 0 0 0 0 0 0 0 0 2 1 2 2 0 0 0 0 0
21 2 0 0 0 0 0 0 0 0 1 1 1 5 2 5 0 0 0 0 0 0
0 0 0 0 0 0 0 0 0 0 0 0 0 3 0 1 0 0 0 0 0 0

GFSNIL_con_mucape_036.txt.gz
CAPE
73 47 70 52 51 37 43 29 0 0 1 9 0 0 0 0 0 0 0 0 0 0
47 65 65 52 42 47 21 4 0 9 14 0 0 0 0 0 0 0 0 0 0 0
65 65 61 74 51 34 1 4 0 16 3 1 0 0 0 0 0 0 0 0 0 0
43 23 44 20 16 0 1 3 4 3 0 2 0 0 0 0 0 0 0 0 0 0
26 29 36 47 7 3 1 9 7 0 0 0 0 0 0 0 0 0 1 4 0 0
28 20 22 14 1 0 0 1 0 0 0 0 0 0 0 0 0 0 5 3 0 0
18 43 23 1 2 15 11 0 0 0 0 0 0 0 0 0 0 5 10 5 0 0
53 57 17 2 0 10 0 0 0 0 0 0 0 0 0 3 7 7 11 3 0 0
52 55 21 10 2 7 12 1 0 0 0 0 0 0 0 4 3 6 15 1 0 0
38 24 27 24 8 8 8 0 0 0 0 0 0 0 0 4 5 11 8 2 0 0
54 25 10 8 3 8 0 0 0 0 0 0 0 0 1 2 4 5 6 4 0 0
35 12 8 5 0 0 0 0 0 0 0 0 0 0 4 2 2 4 3 4 0 0
46 19 0 0 0 0 0 0 0 0 0 0 0 0 0 4 6 2 2 0 0 0
4 0 0 0 0 0 0 0 0 0 0 0 0 0 0 2 6 4 0 0 0 0

GFSNIL_con_mucape_039.txt.gz
CAPE
274 204 129 68 44 50 39 41 38 29 30 7 0 0 12 0 0 0 0 0 0 0
218 357 295 76 89 61 43 34 39 10 13 10 0 6 0 0 0 0 0 0 0 0
391 308 122 104 68 56 43 29 18 5 4 3 7 4 0 0 0 0 0 0 0 0
105 96 70 41 36 34 38 22 4 11 5 8 6 3 0 0 0 0 0 0 0 0
104 89 77 61 43 42 12 1 3 1 1 7 6 0 0 0 0 0 0 0 0 0
78 53 61 39 17 27 17 18 12 2 0 1 4 0 0 0 0 0 0 0 0 1
52 55 58 49 28 37 10 2 4 3 3 4 0 0 0 0 0 0 0 1 2 4
51 51 53 45 49 19 5 3 7 3 0 0 0 0 0 0 0 0 1 3 1 2
69 78 74 55 42 39 28 11 4 0 0 0 0 0 0 0 0 0 3 4 5 5
86 67 47 44 47 32 22 0 0 0 0 0 0 0 0 0 0 0 3 3 4 3
53 56 62 57 30 23 0 0 0 0 0 0 0 0 0 0 0 1 5 7 4 2
31 19 19 40 17 0 0 0 0 0 0 0 0 0 0 0 0 0 4 8 2 0
16 12 0 5 0 0 0 0 0 0 0 0 0 0 0 0 0 0 0 10 9 0
1 0 0 0 0 0 0 0 0 0 0 0 0 0 0 0 0 0 0 0 0 0

GFSNIL_con_mucape_042.txt.gz
CAPE
188 337 335 166 117 99 27 30 36 52 11 8 7 4 5 0 0 0 0 0 0 0
571 535 262 95 76 69 45 55 94 22 30 12 1 6 2 0 1 0 0 0 0 0
609 443 320 124 86 65 71 71 65 40 9 5 9 7 2 2 0 0 0 0 0 0
514 425 237 275 101 71 68 53 53 61 19 13 1 2 0 1 0 0 0 0 0 0
574 488 240 55 74 72 50 37 17 26 27 32 10 1 0 0 0 0 0 0 0 0
474 272 59 60 50 42 47 41 6 10 16 3 5 1 1 0 0 0 0 0 0 0
105 55 44 45 43 30 25 6 2 0 1 3 0 0 0 0 0 0 0 0 0 1
57 52 51 51 50 49 12 24 5 3 1 0 0 0 0 0 0 0 0 0 0 2
68 49 34 57 39 19 0 3 0 12 0 0 0 0 0 0 0 0 0 0 2 7
50 68 71 60 63 48 17 8 0 0 0 0 0 0 0 0 0 0 0 0 4 6
46 50 37 35 22 34 12 0 0 0 0 0 0 0 0 0 0 0 0 0 5 3
29 34 53 31 12 0 0 0 0 0 0 0 0 0 0 0 0 0 0 0 1 1
10 10 2 0 0 0 0 0 0 0 0 0 0 0 0 0 0 0 0 0 0 0
10 8 2 0 0 0 0 0 0 0 0 0 0 0 0 0 0 0 0 0 0 0

GFSNIL_con_mucape_045.txt.gz
CAPE
368 317 258 240 153 137 109 53 46 23 18 18 44 1 0 0 0 3 0 0 0 0
538 383 307 380 315 275 122 59 65 49 47 52 49 30 1 6 0 1 0 0 0 0
526 423 306 303 281 259 79 53 58 58 48 50 54 48 20 15 10 0 0 0 0 0
497 409 346 310 335 226 93 70 66 62 67 59 26 17 9 6 4 0 0 0 0 0
420 321 335 301 240 181 79 64 65 71 34 18 6 20 17 0 0 0 0 0 0 0
371 280 232 163 104 70 60 59 65 60 21 0 3 1 6 0 0 0 0 0 0 0
321 202 115 74 53 38 32 43 48 40 5 7 4 0 0 0 0 0 0 0 0 0
184 74 60 59 26 50 24 18 60 3 7 6 0 0 0 0 0 0 0 0 0 0
82 62 19 40 8 30 34 10 3 0 0 0 0 0 0 0 0 0 0 0 0 0
1 2 5 4 11 18 24 2 7 0 0 0 0 0 0 0 0 0 0 0 0 0
0 0 8 13 25 25 19 20 0 0 0 0 0 0 0 0 0 0 0 0 0 0
0 0 4 11 3 0 0 0 0 0 0 0 0 0 0 0 0 0 0 0 0 0
0 0 0 0 0 0 0 0 0 0 0 0 0 0 0 0 0 0 0 0 0 0
0 0 0 0 0 0 0 0 0 0 0 0 0 0 0 0 0 0 0 0 0 0

GFSNIL_con_mucape_048.txt.gz
CAPE
1009 737 758 621 421 208 275 175 212 142 66 45 32 14 8 27 4 0 0 0 1 0
559 496 614 531 339 233 382 188 83 69 40 50 32 28 39 23 8 1 0 12 1 0
577 535 533 499 446 256 152 84 83 62 32 30 52 56 15 44 19 1 2 1 0 0
678 743 537 407 351 269 202 156 122 71 19 28 73 39 12 4 1 0 0 0 0 0
820 612 439 320 225 182 117 112 120 91 60 72 38 21 49 0 0 0 0 0 0 0
487 440 276 151 50 49 55 65 59 44 54 47 16 26 28 11 0 0 0 0 0 0
515 393 304 169 80 66 51 50 31 30 67 36 17 8 3 3 0 0 0 0 0 0
373 246 184 109 41 22 12 4 19 15 16 6 3 1 0 0 0 0 0 0 0 0
11 19 25 43 44 0 0 3 1 3 1 5 1 0 0 0 0 0 0 0 0 3
0 0 0 0 0 0 0 4 7 0 0 0 0 0 0 0 0 0 0 0 6 3
0 0 0 0 0 0 0 0 5 0 0 0 0 0 0 0 0 0 1 5 5 2
0 0 0 0 0 0 0 0 0 0 0 0 0 0 0 0 0 5 5 4 2 1
0 0 0 0 0 0 0 0 0 0 0 0 0 0 0 0 0 0 4 3 2 0
0 0 0 0 0 0 0 0 0 0 0 0 0 0 0 0 0 0 0 0 11 27

GFSNIL_con_mucape_051.txt.gz
CAPE
1124 1518 1277 1172 978 861 738 570 199 213 162 135 68 66 38 27 26 11 12 11 12 0
841 1631 1434 1373 1376 1160 697 267 151 254 186 78 48 29 23 9 14 16 14 6 4 1
1274 1375 1163 1078 1098 680 426 299 201 209 147 110 35 13 2 17 42 8 24 3 0 0
1155 1095 775 698 670 421 318 331 268 205 200 73 33 5 10 3 16 31 10 14 0 0
1139 1258 1167 1042 850 964 209 62 44 60 68 18 56 47 4 6 7 16 39 2 2 0
1256 1037 1062 885 708 491 283 194 123 39 31 46 26 54 15 6 17 2 0 0 0 0
724 556 461 406 321 205 138 115 79 40 35 27 29 25 10 11 0 0 0 0 0 0
478 442 353 298 265 147 111 91 65 39 10 14 9 6 5 3 5 1 0 0 0 0
116 11 2 0 0 0 0 0 0 0 0 1 0 0 0 0 0 0 0 0 0 37
0 0 0 0 0 0 0 0 0 0 0 1 0 0 0 0 0 0 0 0 4 2
0 0 0 0 0 0 0 0 0 0 0 0 0 0 0 0 0 0 0 0 0 5
0 0 0 0 0 0 0 0 0 0 0 0 0 0 0 0 0 0 0 0 1 4
0 0 0 0 0 0 0 0 0 0 0 0 0 0 0 0 0 0 0 0 0 1
0 0 0 0 0 0 0 0 0 0 0 0 0 0 0 0 0 0 0 0 0 8

GFSNIL_con_mucape_054.txt.gz
CAPE
591 735 594 526 437 435 507 408 272 180 152 124 96 131 64 15 44 48 19 2 0 5
618 678 549 480 621 573 569 483 423 259 255 117 126 147 143 44 36 36 17 27 7 2
446 491 361 140 936 971 617 487 398 348 214 166 164 232 73 63 30 22 1 18 24 1
334 274 547 820 1072 1085 762 545 312 287 210 126 183 95 88 54 24 26 0 2 3 13
961 1020 906 788 876 550 1112 581 487 147 19 69 120 61 54 27 16 14 5 19 7 8
998 890 692 800 701 553 631 521 477 110 38 112 75 49 48 26 17 14 13 13 11 4
1036 798 986 806 729 600 559 474 341 155 170 34 34 12 7 0 10 7 11 5 9 1
836 829 933 692 594 345 231 206 175 34 4 3 2 0 0 6 3 5 0 0 0 0
465 355 347 189 54 11 0 0 0 0 0 0 0 0 0 2 0 0 0 0 0 0
221 53 13 0 0 0 0 0 0 0 0 0 0 0 0 0 0 0 0 0 0 0
11 0 0 0 0 0 0 0 0 0 0 0 0 0 0 0 0 0 0 0 0 0
0 0 0 0 0 0 0 0 0 0 0 0 0 0 0 0 0 0 0 0 0 0
0 0 0 0 0 0 0 0 0 0 0 0 0 0 0 0 0 0 0 0 0 0
0 0 0 0 0 0 0 0 0 0 0 0 0 0 0 0 0 0 0 0 0 0

GFSNIL_con_mucape_057.txt.gz
CAPE
204 240 219 120 36 97 202 257 374 331 232 138 127 69 88 100 79 64 13 12 6 22
257 222 285 278 241 263 206 273 324 271 251 150 123 97 89 77 76 45 22 34 1 14
354 311 329 491 455 239 325 288 362 285 230 214 195 204 99 90 90 71 4 4 4 4
298 523 532 500 563 360 377 640 352 253 245 238 222 141 147 91 70 58 46 31 32 8
138 251 188 92 350 403 770 883 627 448 341 153 24 22 76 74 75 57 42 0 10 8
343 99 72 319 681 897 1123 737 473 330 175 267 33 0 11 40 45 43 24 18 18 3
618 455 448 565 569 597 437 243 173 162 174 181 180 39 14 34 19 17 12 2 13 14
863 703 596 448 326 272 300 209 160 158 82 5 6 14 6 3 12 0 3 3 0 0
734 802 646 455 393 308 153 107 24 10 0 0 3 0 0 0 1 0 0 0 0 0
501 448 312 163 96 24 0 0 0 0 0 0 0 0 0 0 0 0 0 0 0 0
329 226 72 13 0 0 0 0 0 0 0 0 0 0 0 0 0 0 0 0 0 0
135 28 18 0 0 0 0 0 0 0 0 0 0 0 0 0 0 0 0 0 0 0
26 0 0 0 0 0 0 0 0 0 0 0 0 0 0 0 0 0 0 0 0 0
0 0 0 0 0 0 0 0 0 0 0 0 0 0 0 0 0 0 0 0 0 0

GFSNIL_con_mucape_060.txt.gz
CAPE
0 0 9 6 27 6 7 28 58 91 127 194 121 214 191 180 107 78 99 46 61 13
0 0 32 102 158 64 42 37 114 137 162 203 132 81 145 137 95 94 121 125 20 18
26 28 65 110 153 161 172 147 200 221 215 278 208 198 163 89 107 120 60 49 27 12
71 84 128 145 160 156 154 122 187 170 218 236 200 150 121 174 122 112 43 35 24 3
46 94 193 286 196 91 18 230 234 351 259 245 259 212 248 103 121 36 19 24 11 2
70 61 136 183 234 185 1 33 215 490 369 606 194 64 87 11 16 49 20 34 26 3
169 206 231 198 349 337 126 221 499 395 412 250 132 98 48 14 5 17 13 17 9 13
336 207 244 353 291 198 387 400 742 226 116 184 151 42 55 5 2 13 7 6 0 0
535 504 428 456 268 356 480 591 113 169 87 151 86 13 2 6 3 0 0 3 0 0
619 539 474 462 630 429 110 117 83 78 29 6 8 4 2 0 0 0 0 0 0 0
606 436 371 319 117 90 79 41 2 3 0 0 0 0 0 0 0 0 0 0 0 0
292 303 225 136 107 51 2 0 0 0 0 0 0 0 0 0 0 0 0 0 0 0
196 138 142 40 23 0 0 0 0 0 0 0 0 0 0 0 0 0 0 0 0 0
54 45 19 2 0 0 0 0 0 0 0 0 0 0 0 0 0 0 0 0 0 0

GFSNIL_con_mucape_063.txt.gz
CAPE
0 0 0 0 0 0 0 0 0 0 4 22 38 46 113 145 68 81 125 131 75 72
0 0 0 1 3 1 0 4 3 0 0 0 11 24 42 141 73 2 22 137 72 83
0 0 0 1 5 29 19 29 58 69 41 16 36 43 103 129 58 84 131 71 82 68
0 0 0 0 1 27 60 109 128 140 122 144 97 112 123 113 231 299 84 57 78 52
0 0 19 23 47 49 60 114 143 34 74 91 97 115 103 126 198 66 102 91 48 45
32 10 53 8 71 63 95 97 97 0 0 141 144 196 110 122 136 182 82 27 27 23
84 68 23 32 69 71 102 155 146 12 50 104 459 172 111 69 27 71 13 15 1 4
295 197 122 85 102 133 170 208 217 156 67 149 387 258 131 63 58 8 11 7 2 6
362 221 241 230 241 270 316 301 209 201 138 514 309 187 99 21 45 7 7 3 1 4
556 359 323 378 381 343 155 345 245 228 341 343 253 76 37 4 4 8 6 6 5 1
545 448 378 391 271 194 268 169 190 223 249 77 79 19 1 4 4 5 3 1 1 0
412 411 235 241 206 222 267 223 322 114 73 32 3 3 2 0 0 0 0 0 0 0
221 223 241 243 261 183 157 143 72 55 2 2 2 0 0 0 0 0 0 0 0 0
177 154 136 123 149 109 67 62 17 0 0 0 0 0 0 0 0 0 0 0 0 0

GFSNIL_con_mucape_066.txt.gz
CAPE
0 0 0 0 0 0 0 0 0 0 0 0 9 12 9 29 37 47 51 3 0 5
0 0 0 0 0 0 0 0 0 0 0 0 0 0 3 16 24 24 54 22 1 28
0 0 0 0 0 3 0 0 0 0 0 0 0 0 9 10 18 40 39 55 29 40
0 0 0 0 0 0 1 2 1 0 2 7 14 80 65 42 55 27 34 69 93 111
10 1 0 0 0 0 0 0 18 6 0 36 58 72 106 107 105 43 66 117 125 91
117 22 3 12 0 0 0 0 2 1 11 59 78 30 24 81 141 159 145 50 43 111
253 206 77 26 0 0 0 7 12 15 63 72 61 14 2 64 262 190 89 64 35 34
292 274 224 101 8 5 14 6 14 105 103 91 115 2 31 194 294 188 81 29 46 9
280 321 273 206 123 54 34 40 84 87 76 164 211 171 50 148 213 141 116 40 19 15
260 353 296 200 184 183 128 126 148 352 255 685 202 197 135 197 167 92 42 62 49 6
279 263 291 203 206 194 188 426 398 236 220 236 121 195 167 127 66 70 39 7 4 6
293 316 344 305 208 107 199 289 169 120 161 226 125 117 97 65 25 6 4 4 4 5
391 426 376 351 197 234 281 244 47 55 88 63 67 79 51 14 0 3 5 1 0 0
319 210 193 246 154 27 51 67 26 71 112 87 82 59 3 0 0 0 0 0 0 0

GFSNIL_con_mucape_069.txt.gz
CAPE
0 0 0 0 1 1 1 5 0 10 18 30 36 55 92 122 120 115 123 69 24 13
0 0 0 0 0 0 0 0 0 0 1 6 30 51 86 111 104 90 129 98 10 10
0 0 0 0 0 0 0 0 0 0 0 0 0 2 27 62 79 77 129 33 27 10
0 0 0 0 0 0 0 2 0 0 0 0 0 0 6 27 43 32 85 52 29 28
2 0 0 0 0 0 0 0 0 0 0 0 0 0 2 0 54 50 82 55 43 4
147 32 6 4 3 0 0 0 2 1 1 5 39 23 3 14 12 55 57 59 106 130
141 173 167 85 4 0 0 0 0 0 5 1 1 3 7 19 42 58 41 34 105 162
61 96 140 169 142 115 6 0 0 0 21 3 0 40 75 41 80 15 6 102 129 103
0 18 140 196 172 128 85 9 7 12 3 0 31 180 55 93 95 19 37 74 150 15
9 2 37 176 219 196 129 104 54 14 3 17 22 68 59 153 140 60 36 62 59 53
79 55 59 138 186 186 153 149 155 121 67 48 78 120 158 170 101 114 150 109 74 28
136 119 117 145 150 191 141 106 63 192 210 261 176 164 117 71 49 124 112 85 43 6
161 157 157 197 192 243 194 121 76 165 184 193 101 98 59 65 73 85 79 68 0 8
175 180 200 284 231 196 180 216 129 99 113 87 49 63 39 19 35 61 40 52 3 0

GFSNIL_con_mucape_072.txt.gz
CAPE
22 40 25 12 0 5 6 10 26 48 27 42 64 67 154 227 174 228 289 298 283 282
17 25 70 36 16 21 14 25 52 69 85 76 109 126 207 170 159 191 247 262 293 374
3 2 4 19 45 62 43 25 40 56 82 105 95 96 113 120 122 154 330 199 282 304
0 1 4 54 27 15 29 18 11 9 50 33 58 34 80 59 69 125 191 249 248 233
0 0 2 3 29 70 35 38 22 9 3 12 7 55 134 88 50 155 211 221 186 46
103 65 5 0 0 1 4 6 12 17 32 5 29 28 39 125 91 98 121 108 43 61
98 114 123 56 9 1 0 0 0 0 1 17 6 5 14 2 6 2 0 0 0 37
44 50 81 95 125 116 37 0 0 0 3 5 0 2 3 12 0 2 0 2 44 33
58 40 30 53 69 102 97 109 63 15 0 0 0 3 4 11 0 15 52 43 38 7
52 53 61 27 68 130 133 129 117 127 36 20 40 0 8 2 8 64 39 45 128 24
41 56 50 62 58 120 163 170 169 139 123 56 10 2 5 11 38 100 58 213 288 180
144 98 90 80 91 99 157 181 186 174 162 155 125 119 82 81 137 100 194 148 137 35
190 180 190 177 95 133 157 187 185 187 275 295 213 166 93 130 75 59 95 88 87 105
227 241 229 154 127 159 224 209 272 270 223 203 122 94 94 49 38 48 68 73 68 107

GFSNIL_con_mucape_075.txt.gz
CAPE
19 18 36 16 1 43 0 0 4 0 0 0 1 59 75 65 165 80 182 251 356 185
104 85 39 37 58 23 20 18 2 5 12 6 3 25 147 29 53 80 97 117 356 272
117 163 216 181 163 80 59 30 3 12 6 7 18 58 158 128 90 54 55 179 336 387
150 181 341 339 340 271 191 82 74 17 23 39 68 107 119 93 129 130 134 162 243 263
187 101 220 350 473 423 324 213 101 59 28 33 42 70 109 92 30 104 137 203 265 206
355 239 201 256 329 330 442 306 79 72 63 39 43 52 63 65 102 143 152 210 249 201
391 344 272 192 167 221 254 280 250 151 115 70 58 58 66 71 106 145 134 187 152 191
454 316 188 214 171 147 180 196 219 233 232 242 111 29 51 54 47 35 54 67 67 40
379 340 350 326 281 189 151 122 146 119 139 162 54 2 0 2 5 15 15 5 5 1
651 601 572 348 203 206 192 172 129 98 102 111 150 5 0 7 16 6 8 21 0 0
644 634 511 513 418 349 291 235 232 225 228 204 162 135 143 30 6 2 0 2 17 51
573 546 528 556 586 492 394 330 245 179 142 144 139 143 144 110 29 3 16 32 41 130
511 544 476 594 598 478 334 189 70 104 147 121 144 117 122 88 149 320 213 215 166 150
485 477 324 368 581 484 87 31 27 121 156 107 122 112 115 108 140 346 205 176 134 98

GFSNIL_con_mucape_078.txt.gz
CAPE
3 9 2 0 2 0 0 1 1 10 9 7 1 5 5 4 43 37 45 32 34 25
4 21 10 4 4 0 0 6 5 11 2 6 2 0 1 7 4 15 29 21 15 30
28 11 6 14 4 3 0 0 0 0 0 2 4 8 7 7 2 0 12 29 49 38
1 5 5 26 16 4 10 0 0 0 0 0 0 7 8 14 9 2 9 3 5 16
29 10 8 28 5 7 8 7 0 0 0 0 0 0 2 4 7 0 7 9 16 17
37 49 46 43 55 29 31 1 4 0 4 0 0 0 0 0 0 4 13 15 30 20
64 65 52 31 43 118 72 49 27 1 3 0 0 0 0 0 0 0 0 1 13 11
92 111 102 70 62 63 64 84 37 26 5 0 0 0 0 0 0 0 0 7 4 17
102 84 141 138 94 73 58 63 78 75 49 36 9 12 2 0 0 1 10 19 22 19
279 161 136 173 131 117 88 61 68 77 69 64 80 95 84 92 82 6 7 4 7 5
512 359 281 202 171 158 130 102 82 57 65 60 73 102 120 129 108 67 49 10 7 8
551 463 382 336 311 245 172 134 104 84 40 21 55 85 97 107 98 100 60 30 49 19
564 448 407 377 392 359 258 193 135 105 83 106 63 80 111 110 91 53 36 4 2 1
181 520 416 384 365 387 337 275 201 153 105 142 166 118 116 73 36 19 45 63 69 70

GFSNIL_con_mucape_081.txt.gz
CAPE
5 1 1 6 5 6 13 15 18 6 1 10 28 63 115 126 129 122 89 49 37 32
0 0 0 4 5 1 0 6 20 12 8 2 14 38 72 104 96 86 49 29 15 15
0 0 2 1 3 1 3 0 1 3 5 6 14 23 14 25 59 78 45 29 21 10
7 7 9 2 4 2 3 0 0 0 0 0 1 4 12 9 5 6 5 6 14 1
0 0 4 4 1 6 3 2 2 0 0 0 0 0 0 0 0 0 2 4 10 2
0 0 0 0 1 4 3 2 1 2 0 0 0 0 0 0 0 0 0 1 1 1
20 6 0 0 0 0 0 0 13 18 1 0 0 0 0 0 0 0 0 0 0 0
174 34 32 34 28 2 0 0 1 13 30 41 38 5 0 0 0 0 0 0 0 0
279 208 86 59 64 57 55 55 45 26 14 29 46 74 63 30 1 0 0 0 0 0
314 253 228 186 156 125 68 52 79 99 86 72 64 55 58 65 65 71 70 49 41 31
397 456 362 306 274 262 199 137 90 80 111 122 119 108 79 55 43 47 61 76 71 59
96 471 506 543 439 374 292 236 210 159 121 94 97 136 168 134 135 88 36 44 65 63
0 1 58 383 518 546 463 352 317 292 215 170 257 214 141 172 153 115 127 95 156 110
19 15 0 35 390 483 543 457 450 434 482 441 278 307 259 148 111 105 125 70 90 67

GFSNIL_con_mucape_084.txt.gz
CAPE
6 0 0 2 0 0 0 4 1 3 0 3 0 0 17 54 63 69 45 38 18 3
4 2 1 2 3 0 0 6 21 10 12 1 8 24 36 38 43 64 76 72 64 41
3 3 2 3 2 2 1 0 6 10 10 15 11 10 31 46 61 66 70 65 64 80
0 3 7 1 0 4 2 5 3 3 0 1 0 1 3 7 10 14 20 48 36 51
2 0 1 2 2 5 1 1 7 2 0 0 0 0 0 0 0 0 6 12 23 24
33 1 0 3 8 5 1 3 3 3 0 0 0 0 0 0 0 0 0 0 0 0
260 173 19 0 0 2 1 3 2 1 1 0 0 0 0 0 0 0 0 0 0 0
302 217 130 125 51 0 0 0 0 0 1 2 1 2 4 0 3 0 0 0 0 0
218 321 356 257 175 104 67 5 0 0 0 0 0 3 15 19 26 0 0 0 0 0
196 165 214 185 186 213 232 173 141 135 97 50 19 30 25 18 17 27 40 34 14 2
41 114 229 212 144 154 197 196 209 180 193 193 204 169 116 87 47 36 27 25 47 53
0 1 8 118 179 187 184 206 258 270 178 189 270 243 198 183 128 88 78 60 40 26
0 0 0 0 0 0 121 158 170 266 392 310 235 227 266 221 181 120 238 140 142 152
0 0 0 0 0 0 0 64 247 321 226 257 279 295 299 282 254 281 149 124 146 85

GFSNIL_con_mucape_090.txt.gz
CAPE
0 0 0 4 2 0 0 0 14 15 14 27 11 6 16 3 0 6 0 31 73 63
5 0 0 0 2 2 0 0 12 17 25 5 6 16 2 17 14 4 2 0 66 74
5 2 1 0 1 0 0 0 0 9 6 0 0 1 3 10 6 3 4 3 36 27
5 1 4 3 0 0 0 0 0 0 0 0 0 5 9 28 7 2 19 16 14 22
4 1 5 1 4 3 1 0 0 0 0 0 0 0 8 5 11 4 0 0 12 3
27 3 1 3 1 6 1 2 1 0 0 0 0 0 0 0 0 0 0 0 0 0
149 137 103 73 37 3 1 3 6 5 2 3 0 0 0 1 2 2 0 0 0 0
73 77 84 76 65 63 84 39 4 0 0 0 0 1 0 0 0 0 0 0 0 0
47 88 93 112 62 69 76 75 62 94 83 64 68 64 54 32 6 0 1 0 0 0
68 38 46 58 63 26 30 24 40 53 63 70 84 97 88 79 87 103 99 60 30 12
28 51 20 46 38 64 119 99 103 121 35 11 78 28 34 28 26 61 68 96 124 150
0 0 0 0 0 2 10 25 69 84 59 42 12 0 4 17 18 26 42 94 167 207
0 0 0 0 0 0 0 0 0 0 0 0 4 70 44 35 57 63 49 43 92 93
0 0 0 0 0 0 0 0 0 0 0 0 2 0 4 4 24 87 82 117 75 54

GFSNIL_con_mucape_093.txt.gz
CAPE
2 9 17 4 0 0 3 7 4 22 22 9 9 10 7 18 9 20 0 0 20 34
2 9 13 0 0 0 0 3 6 19 66 9 10 12 10 6 3 5 1 0 2 0
2 3 8 0 0 4 8 7 0 27 36 27 21 32 26 4 0 1 18 1 11 15
10 4 5 0 0 0 7 0 0 0 28 22 25 13 32 16 3 6 9 6 3 6
11 0 5 12 7 0 0 0 0 2 5 2 4 0 0 0 4 9 10 11 15 17
0 3 3 19 12 4 2 3 0 0 0 1 2 5 0 0 0 3 4 8 14 36
54 23 5 5 13 16 11 3 3 2 1 0 0 1 0 0 1 7 4 14 30 29
104 105 95 78 45 32 27 5 14 10 4 2 1 1 2 0 0 1 2 4 3 4
42 76 82 78 73 46 40 40 71 53 37 13 7 5 0 0 1 0 0 4 0 0
11 11 12 43 69 48 42 36 62 48 60 69 41 51 49 45 32 89 139 119 150 101
25 29 49 72 84 82 49 102 70 58 32 12 11 33 40 40 33 57 127 211 289 62
0 0 7 28 25 18 12 12 12 15 16 35 19 19 17 31 27 16 19 16 24 7
0 0 0 0 0 0 0 0 0 0 0 0 0 0 0 0 0 7 27 42 16 8
0 0 0 0 0 0 0 0 0 0 0 0 0 0 0 0 0 0 2 3 3 5

GFSNIL_con_mucape_096.txt.gz
CAPE
3 1 30 13 30 22 0 1 1 3 37 13 32 30 17 0 7 26 0 76 153 106
5 4 14 22 18 34 17 0 7 1 23 11 5 3 8 8 14 5 6 0 88 117
0 4 14 29 23 14 39 5 7 1 10 19 4 8 12 10 7 3 6 0 23 59
0 4 7 21 24 0 1 3 2 0 3 14 11 5 16 16 15 4 0 0 1 3
0 5 4 14 21 8 0 1 2 16 2 0 0 26 13 31 6 3 1 0 5 9
20 5 11 13 39 27 30 20 23 31 21 0 1 11 11 0 0 0 0 4 9 13
1 7 5 25 37 21 12 32 36 35 46 45 37 37 60 56 67 53 0 3 7 10
41 4 11 40 34 31 31 11 13 21 9 14 41 16 13 15 12 10 6 5 4 5
93 29 13 11 17 12 2 5 35 44 47 42 18 3 3 4 45 25 12 24 39 31
118 52 65 88 114 55 50 53 55 47 28 38 8 10 16 10 5 8 39 51 33 38
156 36 20 34 41 74 80 85 92 132 167 120 122 74 54 55 57 69 76 61 58 58
2 0 16 31 22 51 94 106 84 106 129 86 86 106 49 37 35 30 49 41 44 65
0 0 0 0 0 0 0 1 10 22 14 6 0 0 2 0 0 2 0 25 35 58
0 0 0 0 0 0 0 0 0 0 0 0 0 0 0 0 0 0 0 0 0 0

GFSNIL_con_mucape_102.txt.gz
CAPE
1207 1139 632 335 177 56 1 11 0 1 0 2 4 9 4 12 9 18 31 43 58 59
1154 1051 678 313 215 23 0 10 0 6 1 3 0 2 8 12 6 31 41 52 71 72
1086 1120 595 145 90 29 0 7 1 0 7 4 1 4 17 12 11 27 43 47 56 57
1138 923 506 117 113 31 5 0 2 1 9 13 3 12 1 3 16 26 27 35 19 1
942 928 350 156 103 64 64 0 0 1 8 7 18 11 5 6 0 24 1 2 2 3
746 568 367 117 77 46 72 10 2 3 2 10 5 8 31 18 6 7 0 10 8 15
628 555 413 122 85 157 158 72 15 3 6 13 17 18 7 20 2 23 5 4 24 8
399 406 265 147 135 51 59 18 7 8 5 1 9 9 26 16 3 14 15 16 24 6
262 538 281 217 171 94 95 106 89 134 13 13 0 0 6 3 7 11 26 12 13 0
289 572 268 263 219 408 42 50 52 50 26 24 25 17 7 8 15 14 20 31 12 14
471 414 489 215 218 59 6 10 19 35 12 14 26 16 7 14 22 20 4 12 7 9
147 329 422 359 123 31 11 10 11 7 10 10 2 2 1 2 7 10 6 5 4 5
127 29 99 52 17 5 5 2 5 10 12 15 22 27 39 44 34 1 7 8 21 6
0 0 0 0 0 0 0 0 0 0 0 0 0 50 64 52 30 4 2 0 0 26

GFSNIL_con_mucape_108.txt.gz
CAPE
1197 1174 917 638 538 511 336 161 320 365 351 212 129 4 11 29 13 46 22 38 19 40
1389 1071 1090 959 956 755 550 408 292 155 488 188 5 2 7 0 6 7 25 21 30 16
1089 1008 1030 1090 937 864 686 506 349 208 59 0 8 0 0 8 22 20 4 9 9 40
952 927 883 815 899 986 769 494 395 265 0 38 0 0 3 1 1 5 4 28 27 5
1039 777 747 786 820 1037 1005 341 373 360 1 10 14 0 32 1 2 2 3 23 32 38
525 343 267 666 668 551 672 362 487 314 8 2 12 0 0 34 3 1 20 1 21 25
74 105 86 342 547 571 512 155 339 84 3 6 24 5 5 10 28 0 11 13 19 12
76 82 92 162 69 143 210 53 89 36 2 24 40 37 19 17 11 8 1 10 8 4
32 37 46 8 113 92 99 196 25 53 2 19 61 16 14 14 3 20 17 7 12 8
6 23 61 65 57 34 54 115 28 58 40 14 5 10 10 16 8 26 10 21 6 16
3 9 16 36 24 32 56 43 13 36 79 5 8 3 5 13 15 28 23 15 25 17
0 2 26 24 11 9 23 24 18 47 56 82 7 7 7 8 13 21 16 28 8 21
0 0 1 0 0 1 11 0 7 9 39 25 0 4 9 5 8 4 11 26 35 27
0 0 0 0 0 0 0 0 7 0 28 37 12 22 2 2 11 20 13 8 20 26

GFSNIL_con_mucape_111.txt.gz
CAPE
1273 1302 1264 1097 1007 859 620 563 351 209 171 236 447 434 275 105 5 8 4 34 50 32
8 868 966 1063 959 967 793 531 456 323 129 149 374 447 294 65 6 11 28 26 34 18
0 19 777 783 816 913 868 666 633 419 281 138 241 571 159 49 7 8 5 4 3 11
7 2 633 565 836 663 714 705 620 545 341 159 242 154 75 6 1 0 8 10 11 21
39 242 412 1142 1044 667 627 658 691 529 428 297 190 2 34 0 0 2 12 9 31 9
109 465 653 600 587 502 467 533 712 568 350 333 237 1 63 0 1 1 5 12 16 32
98 83 266 204 192 175 327 370 582 649 455 184 206 20 23 3 0 6 4 19 18 10
69 61 88 78 64 113 108 382 528 422 377 76 66 0 44 3 0 9 3 7 60 14
2 10 21 26 15 47 17 131 318 78 200 36 75 3 6 8 22 7 10 13 27 21
2 11 13 2 0 29 38 4 15 8 38 3 17 34 20 21 36 19 9 14 8 11
3 1 13 1 0 5 7 26 38 10 36 51 64 60 6 6 29 29 15 18 4 28
4 7 2 3 6 5 10 3 0 3 39 39 36 42 3 5 3 7 3 10 12 20
0 0 0 0 0 0 11 0 0 29 1 2 6 50 10 14 12 28 28 14 3 20
0 0 0 0 0 0 0 0 0 2 0 0 0 20 6 5 0 18 5 5 14 36

GFSNIL_con_mucape_114.txt.gz
CAPE
2074 1630 1748 1713 1565 1318 1055 897 908 938 811 739 315 328 695 433 249 334 137 16 18 12
1508 1636 1481 1480 1538 1253 1102 946 874 718 644 561 236 208 290 657 311 214 114 67 6 11
126 196 616 1223 1204 1204 1165 973 922 827 640 502 334 196 141 222 270 200 95 42 6 21
0 0 0 10 626 1159 910 983 713 789 712 476 385 282 114 295 253 200 61 4 3 1
0 1 17 93 207 494 946 785 835 533 610 517 468 340 322 466 136 89 51 2 0 8
53 65 21 28 365 292 716 833 741 439 367 415 427 388 273 422 135 0 4 0 4 8
48 122 166 275 74 532 624 237 309 322 146 273 404 464 249 164 72 27 0 1 0 6
24 13 16 21 48 96 115 226 61 75 143 184 343 415 151 137 80 46 1 2 0 5
10 13 3 8 55 39 41 26 16 18 117 153 67 361 22 81 81 8 12 57 5 0
0 1 12 4 1 0 1 0 0 29 55 36 16 87 10 39 96 17 8 22 20 22
1 7 10 10 2 2 8 3 13 19 1 16 0 14 0 7 48 16 19 12 26 22
0 0 1 0 1 4 0 1 3 0 0 1 0 0 9 8 38 22 12 19 28 21
0 0 0 0 0 0 0 0 0 0 1 0 0 0 0 10 0 1 7 24 30 29
0 0 0 0 0 0 0 0 0 0 0 0 0 0 0 0 0 1 0 2 5 15

GFSNIL_con_mucape_117.txt.gz
CAPE
1257 1336 1518 1804 1413 1465 1526 1421 1187 940 927 934 850 662 877 396 229 319 223 137 127 74
1039 1342 1442 1575 1582 1290 1263 1385 1229 871 848 918 1104 965 1290 805 245 168 126 456 221 140
753 992 1118 1052 1303 1100 1068 1107 1001 872 812 1064 995 841 1110 843 259 182 183 309 193 55
105 221 294 392 665 961 785 920 726 691 673 603 731 582 945 1022 287 183 65 105 118 61
0 0 0 0 1 34 634 538 486 446 443 478 506 517 460 378 371 170 48 102 155 71
41 9 8 11 33 27 81 266 373 406 416 719 579 518 385 312 347 138 151 271 124 43
14 38 250 189 43 117 98 185 124 223 324 579 473 368 398 358 333 243 229 105 112 1
7 41 8 0 19 151 80 12 61 285 341 252 170 54 67 86 208 185 87 80 67 7
6 19 28 2 5 16 33 17 10 66 134 102 126 68 49 116 71 31 3 33 45 14
0 0 5 19 16 12 5 9 1 30 48 44 25 8 30 88 58 14 0 0 33 43
0 1 10 9 1 11 6 4 3 4 1 6 8 21 17 10 30 19 13 25 25 11
0 0 0 0 0 0 1 5 3 0 2 0 3 1 3 0 0 8 29 19 12 5
0 0 0 0 0 0 0 0 0 0 0 0 0 0 0 0 0 0 0 1 0 4
0 0 0 0 0 0 0 0 0 0 0 0 0 0 0 0 0 0 0 0 0 0

GFSNIL_con_mucape_120.txt.gz
CAPE
1265 1749 1810 1817 2031 2057 1676 1705 1660 1462 1814 1489 1264 1352 1620 1477 1429 1337 1464 886 837 624
898 982 1183 1152 1307 1366 1724 1475 1625 1459 1544 1244 963 1000 1452 1477 920 1107 1208 1455 1248 663
690 606 669 924 1243 1344 1323 1404 1606 1427 1403 1318 1005 843 697 913 586 746 1181 849 716 488
412 299 529 742 985 1186 1295 906 795 874 1165 1089 834 697 515 359 423 663 1093 920 507 424
79 109 146 207 348 352 387 575 517 552 661 626 462 523 583 597 383 529 896 817 431 249
22 18 31 25 32 40 22 41 194 400 407 277 219 232 177 233 850 439 592 770 576 248
93 104 83 145 104 49 131 172 203 194 154 61 269 137 347 306 174 547 581 261 379 211
13 6 4 5 2 8 83 147 173 45 61 204 21 33 105 374 436 287 367 267 350 253
0 0 6 2 0 0 1 16 10 8 7 21 7 29 49 145 160 170 123 108 63 44
0 0 0 2 5 10 11 4 12 9 6 0 8 16 49 73 65 76 81 69 46 69
0 0 0 2 1 5 12 3 6 7 3 4 0 2 9 16 39 51 11 31 37 28
0 0 0 0 0 0 0 0 0 1 1 0 0 3 3 1 2 6 7 7 15 10
0 0 0 0 0 0 0 0 0 0 0 0 0 0 0 0 0 0 0 4 3 0
0 0 0 0 0 0 0 0 0 0 0 0 0 0 0 0 0 0 0 0 0 0

GFSNIL_con_mucape_123.txt.gz
CAPE
1021 843 946 528 35 1521 1627 1419 1594 1648 1868 1885 1448 1557 1464 1451 1343 1120 847 1041 1618 1518
994 985 478 77 1 1029 1622 1436 1780 1771 1468 1482 1309 1150 1522 1271 1634 1534 1505 1749 1744 1565
755 822 421 15 28 447 890 1199 1366 1675 1667 1148 1371 1683 1621 1399 1158 1316 1135 1198 1396 1384
438 472 28 28 35 261 634 986 1200 1376 1158 1092 999 1227 1293 1309 1294 1115 868 684 694 763
20 0 43 118 154 224 284 537 703 792 1192 763 802 745 1063 933 1070 674 716 542 308 559
4 15 27 44 41 41 82 159 171 475 1001 698 535 422 496 394 363 349 472 468 518 458
0 1 0 4 8 64 151 208 138 68 167 353 477 626 476 429 397 311 299 176 366 329
6 6 0 34 23 6 9 11 70 193 132 109 13 1 10 147 152 74 137 209 190 157
32 0 0 0 0 0 1 12 7 8 28 10 4 0 11 68 32 64 39 24 120 253
0 0 0 0 6 6 1 8 8 17 12 16 13 9 8 9 6 56 15 21 41 71
0 0 0 0 0 0 0 0 2 10 18 15 20 13 5 3 0 2 17 16 11 54
0 0 0 0 0 0 0 0 0 0 0 0 0 0 0 0 1 5 0 3 0 2
0 0 0 0 0 0 0 0 0 0 0 0 0 0 0 0 0 0 0 0 0 0
0 0 0 0 0 0 0 0 0 0 0 0 0 0 0 0 0 0 0 0 0 0

GFSNIL_con_mucape_126.txt.gz
CAPE
7 4 191 335 250 892 1304 1495 1557 1194 933 1630 1545 1499 1212 1533 1584 1435 1091 1503 1111 1021
40 17 436 250 0 247 850 806 896 1291 1538 1389 1346 1087 1069 1151 851 821 712 632 625 484
120 52 61 204 132 55 273 0 376 542 774 1139 1440 1551 1296 1356 978 858 709 720 668 660
253 146 25 82 14 53 52 70 171 434 598 640 739 988 1103 1348 1363 1160 1188 1010 711 495
327 162 86 59 160 21 27 9 20 207 440 551 697 795 812 952 1075 1000 961 958 977 642
10 48 58 1 0 1 0 0 15 0 15 226 447 579 584 719 1008 931 690 644 587 580
0 3 1 1 0 14 5 6 23 29 82 133 372 499 559 707 586 600 707 493 176 314
0 0 3 0 0 27 26 21 66 7 12 20 326 426 480 375 361 467 464 454 417 222
0 0 0 0 0 1 21 3 225 85 139 95 143 160 10 4 0 11 25 39 22 71
0 0 0 0 0 2 1 4 1 11 14 9 14 17 13 14 3 3 1 1 0 46
0 0 0 0 0 0 0 0 0 0 0 1 7 1 9 14 14 14 11 6 7 12
0 0 0 0 0 0 0 0 0 0 0 0 0 0 0 0 0 0 0 0 10 10
0 0 0 0 0 0 0 0 0 0 0 0 0 0 0 0 0 0 0 0 0 0
0 0 0 0 0 0 0 0 0 0 0 0 0 0 0 0 0 0 0 0 0 0

GFSNIL_con_mucape_129.txt.gz
CAPE
0 1 11 3 35 50 114 126 402 1174 1192 882 721 738 1131 1364 985 1287 1134 1212 788 1323
1 2 7 30 77 9 57 0 0 1000 958 812 757 709 1110 1122 929 1353 1051 941 703 738
12 19 73 102 117 1 14 11 0 729 717 759 678 709 807 973 1011 770 1167 924 964 546
17 88 63 153 125 53 4 2 0 311 577 608 630 719 720 764 814 731 901 842 773 619
24 164 164 131 9 11 67 10 0 26 132 266 297 394 449 583 684 923 848 729 671 642
143 262 182 40 7 9 0 3 0 3 2 0 111 88 142 291 214 373 526 504 564 529
40 109 87 21 2 0 6 4 12 3 0 6 0 27 77 94 194 325 342 250 225 170
30 5 10 22 20 36 18 0 0 3 2 0 0 28 5 53 102 161 195 176 95 96
0 0 1 1 0 0 20 30 41 40 27 0 22 9 12 18 1 2 15 64 37 28
0 0 0 0 0 0 0 0 0 1 18 1 5 7 2 2 0 2 0 0 0 0
0 0 0 0 0 0 0 0 0 0 0 0 0 0 0 0 0 0 0 0 0 0
0 0 0 0 0 0 0 0 0 0 0 0 0 0 0 0 0 0 0 0 0 0
0 0 0 0 0 0 0 0 0 0 0 0 0 0 0 0 0 0 0 0 0 0
0 0 0 0 0 0 0 0 0 0 0 0 0 0 0 0 0 0 0 0 0 0